[[{"header":{"parameterUnit":"m.s-1","parameterCategory":1,"la1":30.2991,"la2":30.254,"lo1":-89.0895,"lo2":-89.0444,"dy":0.0017,"dx":0.0017,"nx":28,"ny":28,"refTime":"2025-02-07T03:00:00:Z","depth":0,"parameterNumber":2,"parameterNumberName":"U-component_of_WINDS"},"data":[0,0,0,0,0,0,0,0,0,0,0,0,0,0,0,0,0,0,0,0,0,0,0,0,0,0,0,0,0,0,0,0,0,0,0,0,0,0,0,0,0,0,0,0,0,0,0,0,0,0,0,0,0,0,0,0,0,0,-0.6503,-0.6503,0,-0.6494,-0.6494,-0.6494,-0.6507,-0.6507,-0.6508,-0.6508,-0.6497,-0.6497,-0.6496,0,0,0,0,0,0,0,0,0,0,0,0,0,-0.653,-0.6529,-0.6503,-0.6503,-0.6503,-0.6494,-0.6494,-0.6494,-0.6507,-0.6507,-0.6508,-0.6509,-0.6498,-0.6497,-0.6496,0,0,0,0,0,0,0,0,0,0,0,0,0,-0.6519,-0.6529,-0.6503,-0.6508,-0.6509,-0.6494,-0.6494,-0.6494,-0.6507,-0.6507,-0.6508,-0.6509,-0.6498,-0.6497,-0.6496,-0.6475,0,0,-0.6492,-0.6492,0,0,0,0,0,0,0,0,-0.652,-0.6518,-0.6508,-0.6508,-0.6508,-0.6502,-0.6499,-0.6487,-0.6507,-0.6507,-0.6508,-0.6509,-0.6498,-0.6497,-0.6494,-0.6474,-0.6474,-0.6492,-0.6492,-0.6491,-0.6491,0,0,0,0,0,0,0,-0.6521,-0.6519,-0.6499,-0.6507,-0.6508,-0.6511,-0.651,-0.6497,-0.6499,-0.6507,-0.6508,-0.6507,-0.6499,-0.6495,-0.6494,-0.6474,-0.6492,-0.6491,-0.6491,-0.649,-0.6435,-0.6434,0,0,0,0,0,0,-0.6521,-0.6519,-0.65,-0.6499,-0.6516,-0.6509,-0.6509,-0.6503,-0.6499,-0.6499,-0.6507,-0.6508,-0.6496,-0.6495,-0.6493,-0.6468,-0.6491,-0.649,-0.6489,-0.6436,-0.6435,-0.6434,0,0,0,0,0,0,-0.6521,-0.6519,-0.65,-0.6509,-0.6507,-0.6508,-0.6502,-0.6503,-0.6499,-0.6499,-0.6499,-0.6503,-0.6497,-0.6495,-0.6479,-0.6467,-0.649,-0.6489,-0.6437,-0.6436,-0.6435,-0.6417,0,0,0,0,0,0,-0.6522,-0.6519,-0.6512,-0.6509,-0.6507,-0.6486,-0.6502,-0.6502,-0.6498,-0.6499,-0.6495,-0.6495,-0.6497,-0.6481,-0.6478,-0.6466,-0.6488,-0.6438,-0.6436,-0.6435,-0.6418,-0.6415,-0.6412,0,0,0,0,0,-0.6523,-0.6507,-0.6511,-0.6509,-0.6497,-0.6486,-0.6484,-0.6488,-0.6497,-0.6489,-0.6488,-0.6495,-0.6469,-0.6479,-0.6476,-0.6464,-0.6439,-0.6437,-0.6435,-0.642,-0.6416,-0.6412,0,0,0,0,0,0,-0.6508,-0.6507,-0.6511,-0.6494,-0.649,-0.6488,-0.6478,-0.6484,-0.6477,-0.6478,-0.6483,-0.6482,-0.6465,-0.6463,-0.6474,-0.6443,-0.6455,-0.6453,-0.6445,-0.6441,-0.6438,-0.6438,-0.6487,0,0,0,0,0,-0.6502,-0.6494,-0.6493,-0.6478,-0.6475,-0.6477,-0.6472,-0.6476,-0.6471,-0.6469,-0.6468,-0.6463,-0.6453,-0.6447,-0.6439,-0.6418,-0.6417,-0.6408,-0.6405,-0.6403,-0.64,-0.6388,-0.6384,-0.6428,-0.6428,-0.6428,0,0,-0.6491,-0.649,-0.6484,-0.6475,-0.6472,-0.6462,-0.6476,-0.6465,-0.6457,-0.6468,-0.6452,-0.6451,-0.6446,-0.6427,-0.6419,-0.6425,-0.6388,-0.6401,-0.6399,-0.6397,-0.6386,-0.6382,-0.6378,-0.6427,-0.6427,-0.6427,0,0,-0.6465,-0.6464,-0.645,-0.6447,-0.6443,-0.6444,-0.6441,-0.6438,-0.6437,-0.6422,-0.643,-0.642,-0.6405,-0.64,-0.6396,-0.6368,-0.6373,-0.6365,-0.6348,-0.6336,-0.6333,-0.633,-0.6318,-0.6314,-0.6362,-0.6362,-0.6362,0,-0.6452,-0.6437,-0.6443,-0.6431,-0.6426,-0.6436,-0.6421,-0.6418,-0.6411,-0.6407,-0.6414,-0.6394,-0.6391,-0.6371,-0.6364,-0.6361,-0.6357,-0.6365,-0.6333,-0.633,-0.6327,-0.6316,-0.6312,-0.6361,-0.6361,-0.6362,-0.6362,0,-0.642,-0.641,-0.64,-0.6393,-0.6387,-0.6374,-0.6376,-0.637,-0.6374,-0.6374,-0.6358,-0.6355,-0.6345,-0.6341,-0.6344,-0.6321,-0.6325,-0.6333,-0.6345,-0.6322,-0.6312,-0.6308,-0.636,-0.636,-0.6361,-0.6361,0,0,-0.6384,-0.638,-0.6376,-0.6372,-0.6368,-0.636,-0.6347,-0.6338,-0.6332,-0.6327,-0.6315,-0.6301,-0.6308,-0.6303,-0.6306,-0.6296,-0.6272,-0.6305,-0.6305,-0.6298,-0.6245,-0.6238,-0.6233,-0.6276,-0.6276,-0.6275,-0.6245,0,-0.6358,-0.6336,-0.634,-0.6318,-0.6308,-0.6317,-0.6305,-0.6301,-0.6301,-0.6292,-0.6291,-0.6281,-0.6291,-0.6288,-0.6279,-0.6277,-0.6261,-0.628,-0.6264,-0.6264,-0.6264,-0.6228,-0.6221,-0.6193,-0.6241,-0.624,-0.624,0,-0.6324,-0.6317,-0.6294,-0.629,-0.6286,-0.6276,-0.6268,-0.6259,-0.6254,-0.6255,-0.6249,-0.6254,-0.624,-0.6253,-0.6233,-0.6246,-0.624,-0.6238,-0.6237,-0.6235,-0.625,-0.6224,-0.6184,-0.6179,-0.6234,-0.6234,-0.6235,0,-0.6298,-0.6283,-0.6268,-0.6264,-0.626,-0.6252,-0.625,-0.6246,-0.624,-0.6232,-0.6228,-0.6219,-0.6214,-0.6207,-0.6208,-0.6218,-0.6188,-0.6202,-0.6187,-0.6186,-0.6179,-0.6179,-0.6136,-0.6177,-0.6177,-0.6177,-0.6177,0,-0.6267,-0.6252,-0.6256,-0.6246,-0.623,-0.6234,-0.6218,-0.6216,-0.6212,-0.6202,-0.6209,-0.6199,-0.6202,-0.6192,-0.6193,-0.6176,-0.6174,-0.6173,-0.6173,-0.6171,-0.6171,-0.6167,-0.6168,-0.6176,-0.6176,-0.6177,-0.6177,0,-0.6235,-0.6237,-0.622,-0.6217,-0.6216,-0.6204,-0.6201,-0.6192,-0.6192,-0.6178,-0.6175,-0.6176,-0.6164,-0.6165,-0.6152,-0.6153,-0.6131,-0.6134,-0.6133,-0.6133,-0.6117,-0.6118,-0.6069,-0.6062,-0.6109,-0.6108,-0.6108,0,-0.6215,-0.6204,-0.62,-0.6193,-0.619,-0.618,-0.6174,-0.6178,-0.6171,-0.6164,-0.6154,-0.6143,-0.6135,-0.6115,-0.6114,-0.6103,-0.6106,-0.6089,-0.6104,-0.6102,-0.6104,-0.6104,-0.6102,-0.6086,-0.6085,-0.6085,-0.6084,0,-0.6178,-0.6179,-0.6171,-0.6162,-0.6154,-0.6147,-0.6141,-0.6135,-0.6138,-0.613,-0.6118,-0.6112,-0.6098,-0.6086,-0.6077,-0.6073,-0.6079,-0.608,-0.6076,-0.6073,-0.6072,-0.6071,-0.6123,-0.6081,-0.6081,-0.6081,-0.6082,-0.6082,-0.6151,-0.6141,-0.6136,-0.6125,-0.6121,-0.6115,-0.6105,-0.6104,-0.6095,-0.6084,-0.6087,-0.6073,-0.6067,-0.6054,-0.605,-0.6039,-0.6045,-0.6039,-0.6037,-0.6035,-0.6033,-0.6075,-0.6037,-0.6037,-0.6037,-0.6038,-0.6038,0,-0.6113,-0.611,-0.6101,-0.6092,-0.6083,-0.609,-0.6083,-0.6075,-0.6063,-0.6057,-0.6049,-0.6034,-0.6023,-0.602,-0.6009,-0.6001,-0.6003,-0.5997,-0.5997,-0.5996,-0.6029,-0.6033,-0.5996,-0.5996,-0.5996,-0.5996,-0.5996,-0.5996,-0.6092,-0.6075,-0.6076,-0.6057,-0.6054,-0.6041,-0.6036,-0.603,-0.6025,-0.6009,-0.6,-0.5999,-0.5994,-0.5982,-0.5972,-0.5971,-0.5966,-0.5959,-0.596,-0.599,-0.5994,-0.5998,-0.6002,-0.5959,-0.5959,-0.5928,-0.5927,-0.5927]},{"header":{"parameterUnit":"m.s-1","parameterCategory":1,"la1":30.2991,"la2":30.254,"lo1":-89.0895,"lo2":-89.0444,"dy":0.0017,"dx":0.0017,"nx":28,"ny":28,"refTime":"2025-02-07T03:00:00:Z","depth":0,"parameterNumber":3,"parameterNumberName":"V-component_of_WINDS"},"data":[0,0,0,0,0,0,0,0,0,0,0,0,0,0,0,0,0,0,0,0,0,0,0,0,0,0,0,0,0,0,0,0,0,0,0,0,0,0,0,0,0,0,0,0,0,0,0,0,0,0,0,0,0,0,0,0,0,0,2.2465,2.2467,0,2.2665,2.2668,2.267,2.2747,2.2746,2.2746,2.2745,2.2954,2.296,2.2966,0,0,0,0,0,0,0,0,0,0,0,0,0,2.2154,2.216,2.2465,2.2467,2.247,2.2665,2.2668,2.267,2.2747,2.2746,2.2745,2.2745,2.2952,2.296,2.2967,0,0,0,0,0,0,0,0,0,0,0,0,0,2.2315,2.2161,2.2464,2.2531,2.2539,2.2664,2.2668,2.2671,2.2747,2.2746,2.2745,2.2744,2.295,2.2959,2.2968,2.3042,0,0,2.2996,2.3,0,0,0,0,0,0,0,0,2.2306,2.2327,2.2519,2.2527,2.2536,2.268,2.2635,2.2796,2.2747,2.2668,2.2745,2.2744,2.2864,2.288,2.292,2.3052,2.3061,2.2997,2.3002,2.3006,2.3009,0,0,0,0,0,0,0,2.2295,2.2319,2.2544,2.2522,2.2532,2.2553,2.2575,2.2666,2.2769,2.2675,2.2681,2.2704,2.2869,2.2911,2.2925,2.3064,2.2997,2.3005,2.301,2.3014,2.327,2.3272,0,0,0,0,0,0,2.2272,2.2309,2.2538,2.255,2.2416,2.256,2.2584,2.2635,2.2768,2.2787,2.2704,2.2706,2.2896,2.2915,2.2933,2.3031,2.3006,2.3015,2.302,2.3269,2.3271,2.3272,0,0,0,0,0,0,2.2265,2.2292,2.253,2.2431,2.2463,2.2566,2.2622,2.2639,2.2682,2.279,2.2809,2.2728,2.2896,2.292,2.3015,2.3039,2.3019,2.3027,2.3267,2.3269,2.3271,2.3226,0,0,0,0,0,0,2.2256,2.2289,2.2316,2.2431,2.2468,2.2607,2.2624,2.2644,2.2697,2.2702,2.2817,2.2836,2.2897,2.3001,2.3024,2.3052,2.3035,2.3266,2.3268,2.3271,2.3225,2.3226,2.3226,0,0,0,0,0,2.2244,2.2296,2.2317,2.2345,2.2505,2.2608,2.2629,2.2697,2.2698,2.2728,2.2798,2.2832,2.3032,2.301,2.3037,2.3067,2.3265,2.3268,2.327,2.3225,2.3226,2.3226,0,0,0,0,0,0,2.2183,2.2312,2.2338,2.2428,2.2506,2.262,2.266,2.2695,2.2776,2.2777,2.2859,2.2885,2.2973,2.303,2.3002,2.3148,2.3151,2.3159,2.3108,2.3109,2.3109,2.3095,2.3042,0,0,0,0,0,2.218,2.2251,2.2361,2.243,2.2468,2.2557,2.2604,2.265,2.2735,2.2769,2.2846,2.2928,2.301,2.3062,2.3143,2.3233,2.3261,2.3268,2.3268,2.3268,2.3275,2.3329,2.3334,2.3282,2.3282,2.3281,0,0,2.2174,2.2254,2.2294,2.2419,2.2485,2.2559,2.2584,2.2661,2.2717,2.2781,2.2875,2.2934,2.3032,2.3125,2.317,2.3175,2.3295,2.3272,2.327,2.3278,2.3333,2.3338,2.3342,2.3284,2.3283,2.3283,0,0,2.2202,2.2268,2.2334,2.24,2.2499,2.2558,2.2574,2.2684,2.2725,2.2821,2.2871,2.2939,2.3078,2.3146,2.3199,2.3254,2.3289,2.3278,2.328,2.3332,2.3336,2.334,2.3362,2.3369,2.3284,2.3284,2.3284,0,2.2184,2.2295,2.2364,2.2439,2.2493,2.2553,2.2622,2.2682,2.2803,2.2841,2.2844,2.302,2.309,2.3201,2.3215,2.3254,2.3277,2.3266,2.333,2.3335,2.334,2.3361,2.3369,2.3282,2.3282,2.3282,2.3283,0,2.2268,2.2345,2.2386,2.2501,2.256,2.2631,2.2713,2.2765,2.2805,2.2865,2.2963,2.3049,2.3149,2.3178,2.3219,2.3296,2.3296,2.3313,2.3319,2.3342,2.3364,2.3372,2.3279,2.328,2.3281,2.3281,0,0,2.2265,2.2416,2.243,2.2484,2.2598,2.266,2.2734,2.2831,2.2875,2.2957,2.3023,2.3139,2.3156,2.3216,2.3265,2.331,2.3351,2.3322,2.3326,2.3327,2.3444,2.3432,2.344,2.3374,2.3376,2.3377,2.3437,0,2.231,2.2444,2.2509,2.2615,2.2689,2.2746,2.2812,2.289,2.2948,2.302,2.3084,2.3166,2.3181,2.3218,2.3265,2.3336,2.3376,2.3332,2.3439,2.3442,2.3415,2.3452,2.3439,2.3491,2.3446,2.3447,2.3448,0,2.238,2.2461,2.2574,2.2681,2.2714,2.2771,2.2867,2.2933,2.3024,2.3063,2.313,2.3177,2.3261,2.3259,2.3376,2.3344,2.3392,2.3434,2.3437,2.3452,2.3448,2.3469,2.3509,2.3517,2.3462,2.3461,2.346,0,2.2369,2.2505,2.2592,2.2635,2.2761,2.2801,2.2855,2.2945,2.2999,2.3083,2.312,2.3212,2.3263,2.3335,2.3407,2.3398,2.3518,2.3521,2.3555,2.3553,2.3579,2.3577,2.3629,2.3605,2.3605,2.3605,2.3605,0,2.2414,2.2482,2.2588,2.2641,2.272,2.2794,2.2871,2.293,2.3009,2.3077,2.3132,2.3195,2.3285,2.336,2.3417,2.3506,2.3529,2.3564,2.3579,2.3561,2.3556,2.3595,2.3594,2.3607,2.3607,2.3606,2.3606,0,2.2415,2.2489,2.2587,2.2698,2.2727,2.2781,2.2877,2.2932,2.2992,2.3077,2.3101,2.3197,2.3287,2.3366,2.3485,2.3524,2.3617,2.3634,2.3586,2.3595,2.3624,2.3621,2.3705,2.3721,2.3684,2.3684,2.3684,0,2.244,2.2493,2.261,2.2658,2.2711,2.2789,2.2845,2.292,2.2977,2.3084,2.3127,2.3221,2.3301,2.3444,2.3525,2.3618,2.3639,2.3662,2.3653,2.3634,2.3642,2.3639,2.3646,2.3662,2.3662,2.3662,2.3662,0,2.2477,2.251,2.2588,2.2679,2.2743,2.2819,2.2896,2.2933,2.3024,2.3084,2.3177,2.3239,2.3361,2.3455,2.3557,2.3616,2.3656,2.3664,2.3677,2.366,2.3631,2.365,2.3589,2.3662,2.3662,2.3662,2.3662,2.3662,2.2492,2.2543,2.2633,2.2718,2.2784,2.2855,2.2913,2.298,2.3058,2.3162,2.3202,2.3298,2.3389,2.353,2.3588,2.3666,2.3672,2.369,2.3696,2.3699,2.3698,2.3617,2.3684,2.3684,2.3685,2.3685,2.3685,0,2.2534,2.2595,2.2672,2.2778,2.2845,2.2874,2.2961,2.3017,2.3099,2.318,2.3257,2.3365,2.3457,2.3545,2.3642,2.3687,2.3708,2.371,2.3709,2.3722,2.3685,2.3665,2.3692,2.3692,2.3692,2.3692,2.3692,2.3692,2.2564,2.2652,2.2697,2.2819,2.288,2.2973,2.302,2.3087,2.3152,2.3269,2.3345,2.3402,2.3487,2.359,2.3677,2.37,2.3735,2.3733,2.3762,2.3726,2.3724,2.3723,2.3705,2.3739,2.3739,2.3793,2.3793,2.3793]}]]